INSAT-3DS

Last updated on Sun Jun 21 2026 00:02:47 GMT+0000 (Coordinated Universal Time)

1 58990U 24033A 26171.40823205 -.00000160 00000+0 00000+0 0 9990 2 58990 0.0479 106.3313 0001171 331.3573 59.9873 1.00271082 47109
UTC large
Height (km)
Speed (km/s)
/
Latitude / Longitude
Inclination (degrees)
Orbital Period (minutes)
Azimuth
Elevation
Range (km)
Doppler Factor

Next 0 passes for location: London (51.5072 / 0.1276)

No passes found over London.
INSAT-3DS